Location: Red Bud (historical)
(37.7759°N, 88.4053°W)
Time: 21:48:27
(UTC+00:00)

Nauka - Pass Details

Date: 24 September 2021
Orbit: 417 x 423 km, 51.6° (Epoch: 26 October)

Event Time Altitude Azimuth Distance (km) Brightness Sun altitude
Rises 00:16:07 0° 280° (W) 2,357 ? -6.3°
Reaches altitude 10° 00:19:04 10° 309° (NW) 1,497 ? -6.9°
Maximum altitude 00:20:48 13° 340° (NNW) 1,309 ? -7.2°
Drops below altitude 10° 00:22:33 10° 11° (N) 1,501 ? -7.6°
Sets 00:25:31 0° 40° (NE) 2,368 ? -8.1°
